This demonstration page uses our WeatherBlox Daily Observations layout. Learn more.

Left ArrowRight Arrow

53.62937, 11.41316

Hourly Observations for May 1, 2018

Temp ( °F °C ) Dew Point ( °F °C ) Humidity (%) Winds ( mph kmh ) Pressure ( in mb ) Visibility ( mi km ) Precip ( " mm )
6:50 am 06:50 Mostly Sunny 50 10 36 2 58 58 S 17 28 29.56 1001 7 11 N/A
7:20 am 07:20 Mostly Cloudy 50 10 36 2 58 58 S 16 26 29.56 1001 30 48 N/A
7:50 am 07:50 Mostly Cloudy 48 9 36 2 62 62 S 13 20 29.56 1001 30 48 N/A
8:20 am 08:20 Mostly Cloudy with Light Rain 48 9 37 3 66 66 S 15 24 29.59 1002 30 48 N/A
8:50 am 08:50 Mostly Cloudy with Light Rain 48 9 37 3 66 66 S 14 22 29.59 1002 30 48 N/A
9:20 am 09:20 Mostly Cloudy 48 9 37 3 66 66 SSE 15 24 29.59 1002 30 48 N/A
9:50 am 09:50 Mostly Cloudy with Light Rain 48 9 37 3 66 66 S 20 31 29.59 1002 30 48 N/A
10:20 am 10:20 Mostly Cloudy with Light Rain 46 8 39 4 76 76 S 18 30 29.59 1002 30 48 N/A
10:50 am 10:50 Mostly Cloudy with Light Rain 46 8 41 5 82 82 S 18 30 29.59 1002 30 48 N/A
11:20 am 11:20 Mostly Cloudy with Light Rain 45 7 41 5 87 87 S 20 31 29.62 1003 30 48 N/A
11:50 am 11:50 Mostly Cloudy with Light Rain 45 7 41 5 87 87 S 17 28 29.62 1003 30 48 N/A
12:20 pm 12:20 Mostly Cloudy with Light Rain 45 7 43 6 93 93 S 18 30 29.62 1003 30 48 N/A
12:50 pm 12:50 Mostly Cloudy with Light Rain 45 7 43 6 93 93 S 18 30 29.65 1004 30 48 N/A
1:20 pm 13:20 Mostly Cloudy with Drizzle 46 8 41 5 82 82 S 17 28 29.65 1004 30 48 N/A
1:50 pm 13:50 Mostly Cloudy 46 8 41 5 82 82 S 17 28 29.68 1005 30 48 N/A
2:20 pm 14:20 Mostly Cloudy 46 8 41 5 82 82 S 20 31 29.68 1005 30 48 N/A
2:50 pm 14:50 Mostly Cloudy 46 8 41 5 82 82 SSW 20 31 29.71 1006 30 48 N/A
3:20 pm 15:20 Mostly Cloudy 48 9 41 5 76 76 S 18 30 29.71 1006 30 48 N/A
3:50 pm 15:50 Mostly Cloudy with Light Rain 46 8 43 6 87 87 SSW 21 33 29.74 1007 30 48 N/A
4:20 pm 16:20 Mostly Cloudy 46 8 43 6 87 87 SSW 18 30 29.74 1007 30 48 N/A
4:50 pm 16:50 Mostly Cloudy with Light Rain 46 8 43 6 87 87 SSW 24 39 29.74 1007 30 48 N/A
5:20 pm 17:20 Mostly Cloudy with Light Rain 46 8 41 5 82 82 SSW 20 31 29.77 1008 30 48 N/A
5:50 pm 17:50 Mostly Cloudy 46 8 43 6 87 87 SSW 22 35 29.80 1009 30 48 N/A
6:20 pm 18:20 Mostly Cloudy 46 8 41 5 82 82 SSW 18 30 29.80 1009 30 48 N/A
6:50 pm 18:50 Mostly Cloudy 46 8 41 5 82 82 SSW 17 28 29.80 1009 30 48 N/A
7:20 pm 19:20 Mostly Cloudy 46 8 41 5 82 82 SSW 15 24 29.83 1010 30 48 N/A
7:50 pm 19:50 Mostly Cloudy 46 8 43 6 87 87 SSW 15 24 29.83 1010 30 48 N/A
8:20 pm 20:20 Mostly Cloudy 46 8 43 6 87 87 SW 14 22 29.85 1011 30 48 N/A
8:50 pm 20:50 Mostly Clear 46 8 39 4 76 76 SSW 8 13 29.85 1011 7 11 N/A

Powered by AerisWeather